Theta_e
328 320 317 315 315 312 310 301 296 294 286 287 284 288 291 293 294 294 294 294 295 296 296 298 296 299 299 295 296 296 294 293 293 288 295 297 307 314 322 324 328 333 334 337 341 344 345 347 350 352 354 354 353 353 353 353 352 352 352 351 350 349 349 348 348 347 347 348 347 347 348 347 347 347 347 348 348 348 348 348 348 348 348 349 348 349 349 348 346 345 344 343 341 341 340 339 338
321 318 317 317 313 308 304 295 290 283 284 284 287 286 288 291 294 292 293 293 295 299 296 298 296 297 296 295 294 297 297 297 297 300 300 307 313 316 322 324 331 333 334 337 341 343 344 345 348 351 354 354 354 354 353 353 352 352 351 350 350 349 349 348 347 347 348 348 348 348 348 348 347 347 347 347 348 348 348 348 348 348 348 348 348 347 347 347 345 344 342 341 340 339 338 337 337
320 318 316 311 310 305 301 296 293 281 281 282 283 286 289 292 292 292 292 293 295 294 294 297 297 298 298 298 298 297 295 299 299 306 309 312 310 312 322 324 331 333 335 338 341 343 344 344 346 350 354 354 353 353 353 353 352 351 351 350 349 349 349 348 348 348 348 349 348 348 348 348 347 347 347 347 347 347 348 348 347 348 348 347 347 347 346 346 345 344 342 341 339 337 336 335 334
318 317 317 305 306 300 295 290 287 281 284 280 283 286 290 291 291 291 292 294 294 294 297 300 300 300 298 295 298 297 295 299 304 310 306 312 307 308 325 327 329 335 335 338 341 342 343 344 344 350 352 353 353 353 353 353 352 351 351 350 349 349 348 348 348 348 348 348 348 348 348 348 347 347 347 347 346 347 347 347 347 347 347 347 346 346 346 346 344 342 341 339 338 336 334 333 332
315 317 311 304 298 299 292 289 287 283 284 283 287 289 289 290 291 292 294 293 293 295 297 299 298 299 300 300 298 298 297 298 302 308 309 309 312 314 325 329 333 335 335 338 340 342 342 342 343 347 352 353 353 353 353 352 352 351 351 350 349 349 348 348 348 348 348 348 348 348 348 348 347 348 347 347 346 346 346 346 347 346 346 346 346 346 345 344 342 341 340 339 337 335 333 331 330
310 311 310 304 300 299 291 288 287 287 286 286 288 288 288 289 291 291 292 293 297 295 296 296 299 299 298 298 298 300 296 302 303 310 310 310 316 319 327 332 334 334 335 337 340 341 342 341 344 345 352 353 353 353 353 352 351 350 350 350 349 348 348 348 348 348 348 349 349 349 348 348 348 348 347 347 346 346 346 347 347 346 345 345 346 344 343 341 341 340 338 338 336 333 331 329 328
312 304 302 301 300 296 290 284 284 284 291 289 291 288 290 290 291 294 294 298 299 299 296 299 296 297 296 296 299 300 300 306 310 311 309 313 317 324 329 333 333 333 334 337 339 340 340 341 344 348 350 351 352 352 352 352 351 350 350 349 349 348 348 348 348 348 348 349 348 348 348 348 348 348 347 346 346 346 346 346 346 346 346 345 344 343 342 341 339 337 337 335 334 332 330 328 327
311 304 300 294 292 290 286 285 286 285 293 290 291 292 290 290 290 294 294 295 296 298 298 296 295 297 297 296 297 298 299 309 308 314 315 316 319 322 330 333 332 332 334 336 337 338 338 340 344 346 349 351 351 352 352 352 351 350 349 349 348 347 348 348 347 348 348 349 348 348 348 348 348 348 347 346 346 345 346 346 346 346 345 344 343 342 340 338 338 337 335 334 332 330 328 327 326
307 304 299 295 291 287 284 288 289 288 290 290 291 292 300 293 292 294 295 294 296 296 295 297 296 296 294 295 297 298 299 306 312 315 318 319 320 322 331 332 332 331 333 335 337 336 338 339 342 346 347 349 351 352 352 352 351 350 349 348 348 348 348 348 348 348 349 348 348 348 349 348 348 347 347 346 346 346 346 345 345 344 343 342 341 340 338 337 337 336 335 334 331 329 326 325 323
305 299 293 292 289 288 284 285 287 292 290 291 291 293 293 294 294 295 296 296 298 295 297 297 296 298 297 296 296 302 306 304 311 318 318 320 319 319 325 329 329 331 332 334 335 336 338 336 339 341 344 348 350 351 351 351 350 350 349 348 348 348 348 348 348 348 348 348 348 348 348 348 347 347 346 346 346 345 345 345 344 343 342 341 340 339 337 336 337 338 337 333 330 327 326 325 324
298 296 295 288 284 282 286 286 285 289 289 292 291 293 293 294 295 294 294 296 294 295 296 296 299 297 295 296 296 300 302 307 315 316 317 319 319 318 319 320 327 330 332 331 333 334 336 337 335 339 342 344 347 349 349 350 351 350 349 348 348 349 349 349 349 348 349 348 349 348 348 348 347 346 346 345 345 345 345 344 343 342 341 340 339 338 336 335 336 339 335 332 329 326 324 324 323
298 293 290 283 285 285 284 286 287 289 291 289 296 295 294 296 295 295 296 295 293 293 295 297 298 296 295 293 296 300 300 305 311 311 313 316 319 318 318 315 321 327 328 331 331 333 334 336 336 336 338 338 342 345 346 347 348 349 349 349 349 349 349 349 349 348 349 349 348 348 348 347 347 346 346 345 345 345 344 343 342 341 340 339 338 337 336 334 335 337 334 330 327 325 324 322 321
295 291 287 285 287 287 285 285 285 290 287 290 295 298 294 295 297 295 293 293 291 293 295 295 298 297 295 296 296 294 301 305 310 308 308 315 318 316 316 316 317 324 325 327 330 331 331 334 336 337 338 334 336 338 341 343 345 347 347 348 347 347 347 348 348 348 348 349 348 348 348 347 345 346 345 345 345 345 344 343 343 341 340 339 338 336 336 334 332 334 332 329 327 324 323 321 318
296 292 291 289 284 284 286 287 285 290 288 292 289 292 293 296 295 295 291 294 292 295 296 297 297 297 295 293 291 290 296 300 301 307 311 316 315 316 317 317 317 320 322 327 330 331 332 333 336 337 338 337 339 335 335 339 342 345 345 345 345 345 345 346 346 346 346 346 346 345 343 343 344 344 344 344 344 344 343 341 342 341 340 339 338 338 333 332 335 333 330 328 326 324 321 319 317
299 293 286 286 284 284 285 290 290 285 292 291 295 294 293 295 294 291 296 293 294 293 298 298 299 297 291 295 290 293 303 300 307 310 312 315 315 314 316 316 317 317 321 326 329 330 332 333 335 336 336 338 339 339 340 338 336 340 342 343 343 343 344 343 344 343 342 343 342 341 339 337 337 338 339 341 341 339 337 334 340 341 340 338 336 332 332 335 333 331 330 327 326 323 321 319 317
297 292 288 288 284 285 285 289 285 286 291 293 294 291 293 294 296 297 296 296 297 298 297 299 299 298 295 296 298 296 295 301 309 311 314 314 313 314 312 316 316 317 318 325 328 329 331 332 334 336 336 338 339 340 341 341 334 333 337 339 339 340 341 341 340 338 335 335 336 335 332 333 331 334 330 335 334 337 334 331 335 336 339 337 334 332 332 334 332 330 329 328 325 322 321 317 314
295 291 290 282 285 285 287 288 288 289 289 289 290 293 295 293 293 295 296 295 297 296 295 296 300 298 295 296 297 301 304 310 311 312 314 313 311 313 311 315 315 315 318 322 326 328 328 331 334 336 336 337 339 340 341 342 340 331 332 333 334 336 337 337 337 333 328 327 329 327 326 334 334 335 332 337 327 334 326 325 331 334 338 338 336 335 333 333 331 330 329 327 324 322 318 317 315
294 289 284 285 282 287 287 290 289 293 292 291 293 293 293 292 292 296 296 296 291 291 293 293 295 295 296 295 303 305 306 310 310 312 311 311 311 311 311 312 312 320 317 320 321 326 330 331 332 335 336 336 338 339 341 342 342 334 340 340 337 336 332 330 333 335 329 332 326 330 332 331 332 332 333 331 333 331 326 322 327 333 336 334 334 335 333 332 331 330 328 326 324 320 314 296 296
289 287 285 284 283 288 292 290 290 292 292 291 292 290 292 294 294 295 295 292 290 293 296 295 294 294 296 297 299 306 308 308 310 308 309 310 311 313 314 312 314 313 317 318 321 325 330 333 333 334 335 336 337 338 340 341 342 340 340 340 338 332 333 331 335 332 332 332 331 331 328 328 331 333 333 331 330 323 326 321 326 329 333 331 331 334 333 332 331 329 328 325 322 315 296 293 291
293 290 288 285 288 290 292 291 294 291 295 294 292 293 292 294 295 295 295 292 291 294 296 296 295 295 293 293 292 303 306 307 307 307 309 309 311 312 311 312 314 316 319 320 320 319 326 331 333 334 334 336 337 338 339 340 341 340 341 341 339 338 337 334 335 336 335 334 333 331 329 330 331 332 328 323 324 324 323 319 324 325 328 326 326 328 330 331 330 329 327 324 313 300 293 293 291
294 292 288 289 290 293 294 293 295 294 292 293 293 292 292 294 292 295 293 293 295 295 295 295 297 297 296 294 293 298 305 304 305 305 306 307 308 310 312 313 313 315 315 317 317 321 323 328 331 332 333 335 336 337 337 339 340 340 340 340 340 339 337 336 336 336 335 335 334 333 332 331 331 331 329 326 325 324 322 322 323 325 324 322 321 318 318 320 320 315 313 307 297 296 293 292 290
295 293 292 292 291 293 295 293 293 292 291 292 291 292 295 294 295 293 294 293 294 296 300 295 295 297 295 296 296 299 303 303 304 304 305 306 306 307 307 308 310 309 309 315 319 319 319 323 328 331 332 334 335 337 337 338 338 338 339 339 338 339 338 336 336 336 335 335 334 333 331 330 329 328 326 325 323 322 321 320 321 321 319 319 316 315 312 314 312 309 307 303 297 295 293 293 293
293 291 293 293 292 295 294 293 293 292 294 292 291 293 293 294 293 293 294 295 297 300 298 298 297 296 295 295 294 295 294 296 298 301 303 302 303 303 304 306 306 307 308 311 314 315 317 320 321 323 330 332 334 336 337 337 337 338 337 338 337 336 338 337 335 336 335 334 332 331 331 329 327 326 324 323 322 321 320 320 319 318 318 316 312 314 311 311 310 308 305 303 297 296 295 294 292
296 292 291 294 293 295 294 296 294 292 292 292 292 291 292 291 293 292 292 297 298 300 298 296 296 295 293 292 292 294 295 295 295 295 296 296 296 297 298 299 301 304 305 308 310 313 315 318 320 321 326 330 332 334 335 336 336 336 337 335 336 334 333 335 335 336 334 333 331 331 329 329 328 325 323 322 321 319 320 319 318 317 316 315 309 312 311 307 306 305 305 299 298 295 296 295 292
294 293 291 292 292 292 292 291 290 291 291 292 291 292 294 292 292 292 295 298 298 297 295 294 293 293 294 295 296 296 296 296 296 296 297 297 297 298 298 297 298 298 301 304 308 310 312 316 319 322 323 325 329 332 334 335 335 335 335 334 334 332 334 335 334 333 333 332 331 330 329 328 326 325 323 322 319 319 318 317 316 316 315 313 309 308 310 308 305 305 304 303 299 297 293 294 292
292 292 291 289 291 291 292 292 291 291 292 292 292 292 294 292 292 292 296 298 297 294 293 292 293 294 295 296 296 296 295 295 295 296 296 296 297 297 297 297 298 298 299 299 301 306 310 315 319 322 323 324 324 328 332 334 334 334 334 334 335 333 332 334 332 332 331 329 329 329 328 328 326 324 322 319 319 318 316 316 315 314 314 312 309 310 307 308 307 303 302 302 301 297 294 293 294
292 289 290 292 293 290 291 290 294 293 292 292 292 292 292 290 293 291 290 294 294 293 292 291 292 294 295 295 295 295 295 294 295 295 296 296 296 296 297 297 297 298 299 300 301 302 308 311 316 320 322 321 322 326 330 332 332 332 333 333 333 334 333 331 330 330 330 329 327 326 326 326 326 324 321 319 318 317 315 315 315 313 312 310 310 311 307 308 306 307 306 304 303 299 297 292 293
291 292 291 290 290 291 291 290 292 291 293 290 292 290 290 290 291 291 297 294 293 292 290 291 293 294 294 294 294 294 294 294 295 295 294 294 295 295 296 296 297 298 299 301 303 304 306 310 313 315 319 321 321 323 324 328 330 331 330 331 331 332 330 331 329 328 326 327 327 326 325 325 322 322 321 318 319 317 315 315 314 312 312 309 309 309 307 306 306 303 302 301 300 299 298 292 292
292 292 291 289 289 291 292 292 292 292 291 290 290 291 290 289 289 293 294 293 292 290 290 291 293 293 293 293 293 293 293 294 294 294 294 294 295 296 295 297 297 297 299 301 303 306 307 308 311 314 316 317 319 321 322 323 324 326 327 328 329 328 329 329 329 328 328 327 325 325 325 324 322 323 321 320 317 317 316 315 313 312 312 311 309 307 306 305 303 301 299 297 296 296 295 293 292
292 289 288 289 287 289 292 291 289 291 291 289 291 285 286 287 290 293 293 292 290 290 290 292 292 292 292 292 292 292 293 293 293 293 294 294 295 295 295 296 297 298 299 300 302 304 306 309 312 313 314 314 315 316 316 317 316 319 322 323 324 325 326 327 327 326 326 326 325 323 324 323 322 321 320 318 318 317 316 315 315 313 313 311 309 308 307 304 303 301 300 297 298 296 295 293 292
291 288 289 286 285 284 289 291 290 291 291 288 293 286 284 287 292 293 292 290 290 288 291 292 292 292 292 291 291 291 292 292 292 293 293 294 294 295 295 295 296 297 298 299 300 301 303 306 309 311 309 311 312 313 314 315 313 316 314 318 321 322 322 324 324 324 324 325 324 324 322 321 320 320 320 320 317 317 316 315 314 314 312 310 310 307 307 304 304 303 298 299 293 293 292 292 291
285 287 283 279 284 285 288 292 290 290 292 289 291 284 287 290 291 293 291 291 290 288 291 292 291 291 291 290 290 290 291 292 292 292 293 293 294 294 294 294 295 296 297 298 299 300 301 302 304 308 309 309 309 309 310 312 313 313 315 315 317 315 318 319 320 322 322 321 321 320 320 319 316 316 315 316 316 314 315 314 312 309 308 308 308 306 305 304 302 301 297 299 296 294 291 292 289
281 286 281 282 281 283 287 291 290 292 290 291 290 286 285 290 289 291 291 292 289 288 290 290 290 290 290 290 290 290 290 290 291 291 292 292 293 293 293 294 294 295 296 297 297 298 299 300 301 302 305 308 309 310 310 310 312 313 314 316 315 314 314 315 314 315 317 319 318 319 318 318 317 316 315 315 316 313 312 312 310 308 306 308 307 305 305 304 302 301 295 296 300 300 293 292 289
282 281 283 282 284 283 284 289 291 288 291 290 289 287 287 290 292 292 292 291 288 289 290 290 290 289 289 289 289 289 289 289 289 290 291 292 292 292 293 295 294 295 296 296 296 297 298 299 299 300 301 304 308 309 310 310 311 311 312 313 313 314 313 314 314 314 313 313 313 314 315 315 314 315 314 314 316 315 313 312 308 307 307 307 306 305 305 301 300 301 299 294 295 297 293 292 291
280 283 282 284 283 283 286 286 288 291 289 290 287 287 287 290 292 291 291 290 288 289 290 289 289 289 289 289 289 288 288 288 289 290 291 291 291 292 292 293 293 294 294 295 295 296 297 297 298 298 299 300 303 305 308 310 311 312 312 311 311 312 312 311 312 312 312 313 313 313 312 312 312 313 312 311 312 312 311 310 309 307 307 307 306 303 301 299 299 299 301 296 291 292 294 291 292
287 286 286 283 285 285 284 287 288 290 288 288 287 288 290 290 290 289 291 291 289 289 289 289 289 289 288 288 288 288 288 288 290 290 290 291 291 291 291 292 292 293 293 294 294 294 295 296 296 297 297 298 301 303 304 307 310 309 309 310 309 309 311 310 311 311 312 312 311 313 313 313 312 311 311 311 310 309 309 308 307 305 305 305 304 303 301 300 300 298 298 298 293 291 289 288 287
286 285 285 284 284 285 286 286 290 290 289 286 288 286 285 287 287 289 290 290 289 288 288 288 288 288 288 288 288 288 288 288 289 289 289 290 290 291 291 291 291 292 292 292 292 293 293 294 294 294 296 297 297 298 300 301 303 307 307 306 306 307 308 309 309 309 309 309 310 310 310 311 311 310 309 310 309 308 307 307 306 305 304 304 304 305 304 302 301 300 298 296 295 292 291 288 287
287 286 284 284 282 285 287 288 289 288 289 284 283 284 287 288 287 289 289 289 287 287 287 287 287 287 287 287 287 287 287 288 288 288 288 288 289 289 290 290 291 289 290 291 291 291 292 293 293 293 294 295 295 296 297 299 299 301 303 303 302 302 303 303 303 305 306 307 306 307 308 309 308 308 308 308 307 307 306 305 304 304 304 304 303 302 301 299 298 297 295 294 293 295 294 290 290
285 285 284 283 285 284 288 288 287 288 288 286 284 286 288 287 286 288 287 287 287 288 287 287 287 286 286 286 286 286 286 286 286 287 287 287 287 288 289 289 289 289 289 290 290 291 291 291 292 292 293 293 294 295 296 296 296 297 298 298 300 299 299 300 300 299 301 302 302 302 301 304 305 305 305 306 306 306 305 305 303 303 303 302 302 302 300 300 298 297 295 297 294 290 291 290 291
284 284 283 284 284 285 284 285 286 289 287 285 283 284 287 285 287 287 287 287 287 287 287 287 287 286 285 286 285 285 285 285 285 285 285 286 286 287 287 287 288 288 288 288 289 290 290 290 290 291 291 292 293 294 295 295 296 295 296 296 296 296 295 296 297 296 296 296 296 296 296 298 299 300 300 301 302 303 303 303 302 302 301 301 301 301 300 299 297 296 295 295 295 294 291 291 291
283 285 284 284 285 285 286 286 285 284 287 284 284 284 284 283 286 285 286 287 287 287 287 286 286 286 286 286 286 285 284 284 284 284 284 285 285 285 285 286 287 287 287 287 288 288 289 289 290 290 291 291 292 293 293 294 295 295 295 296 295 294 294 293 293 293 292 293 293 293 292 293 294 294 295 296 297 299 299 300 300 300 300 299 300 300 299 299 299 297 296 295 295 296 296 292 290
282 283 288 288 287 286 283 284 286 282 282 282 284 278 276 279 281 284 285 285 285 285 284 284 285 284 284 284 283 284 284 284 284 283 284 284 284 285 285 285 285 286 286 286 287 287 288 288 289 289 290 290 290 291 292 293 293 292 292 291 290 290 289 289 289 289 290 290 290 291 291 292 292 292 292 292 292 294 295 295 296 297 297 297 298 298 297 296 297 296 296 296 294 294 293 292 291
284 287 286 289 287 285 284 283 284 280 278 284 283 281 275 279 281 284 284 283 283 283 283 283 284 283 283 283 283 283 283 283 283 283 283 283 283 284 284 284 285 285 285 286 286 287 287 287 287 288 288 289 290 290 291 291 291 291 290 289 289 289 288 288 288 289 289 289 290 290 290 290 290 290 290 290 290 291 292 293 293 293 293 294 294 295 295 295 296 296 296 296 295 295 293 292 292
284 284 283 285 285 285 283 283 284 281 280 282 282 284 278 275 282 285 284 283 281 282 282 282 283 282 282 282 282 282 282 282 282 282 282 283 283 283 283 284 284 284 285 285 285 286 286 286 286 286 287 288 288 289 289 290 289 289 289 288 289 288 287 287 288 288 289 289 288 288 288 289 289 289 289 289 289 290 290 291 292 292 292 292 292 292 292 292 294 295 295 295 294 293 293 292 292
284 285 283 283 284 283 282 284 281 281 282 278 279 281 280 275 280 282 284 282 281 281 282 282 282 282 282 281 282 281 282 282 281 281 282 282 282 282 283 283 284 284 284 284 284 285 285 285 285 285 285 286 286 287 288 288 288 288 287 287 286 287 287 287 287 287 287 287 286 286 286 286 287 287 287 287 288 288 289 289 290 290 290 290 290 291 291 291 290 291 292 293 293 293 293 292 291
286 284 284 283 282 282 280 279 282 279 278 273 279 281 277 278 279 281 283 282 281 281 282 282 282 282 281 281 282 282 281 281 281 281 281 282 282 282 282 282 283 283 284 284 284 284 284 284 285 284 284 285 285 285 286 286 286 286 286 285 284 284 285 285 285 284 284 284 284 284 285 285 285 285 285 286 286 287 287 288 288 288 288 289 289 289 289 290 290 289 289 289 290 291 292 293 292
285 285 285 282 280 279 279 278 276 279 272 276 281 282 283 277 280 281 281 282 281 282 282 281 281 281 282 281 281 281 281 280 280 280 281 281 281 281 281 282 282 282 283 283 283 283 283 284 283 283 283 284 284 284 285 285 285 285 284 284 284 283 283 283 283 283 283 283 282 283 283 283 284 284 284 285 285 285 285 286 286 286 287 288 288 288 288 288 288 288 288 287 288 288 289 290 291
285 284 282 281 284 277 276 270 275 273 271 274 277 280 281 275 277 280 281 282 281 284 282 281 280 280 281 281 281 281 280 280 280 280 280 280 281 281 281 281 281 281 282 282 282 283 283 283 283 283 283 283 283 284 284 284 284 284 284 284 283 283 283 283 282 282 282 282 282 282 282 283 283 283 284 284 284 284 285 284 285 285 285 286 286 287 287 288 288 288 287 287 287 286 286 286 287
284 282 282 277 273 273 271 270 273 271 273 277 278 280 280 280 281 282 281 281 281 281 283 283 281 281 281 280 281 281 280 279 279 279 279 279 279 279 280 280 281 281 281 281 282 282 282 282 283 282 282 282 283 283 283 283 284 284 284 283 284 284 284 283 283 283 283 282 282 283 283 283 283 283 284 284 284 284 284 283 284 284 284 285 285 286 286 288 288 288 287 287 286 286 285 284 284
283 284 278 273 271 270 266 267 266 268 274 277 280 281 279 279 281 279 279 281 281 281 283 283 282 281 281 280 280 280 280 279 279 279 279 279 279 279 279 280 280 281 281 281 281 282 282 282 282 283 282 282 282 283 283 283 283 283 284 284 283 284 284 284 284 284 284 284 284 283 283 283 283 283 284 284 285 284 284 284 284 284 284 285 285 285 285 286 287 287 287 287 286 287 285 284 284
283 282 284 281 272 265 268 265 272 274 274 276 277 276 272 277 281 277 280 280 280 280 281 282 281 280 280 279 279 279 279 279 279 279 279 279 279 279 279 280 280 280 280 281 282 282 282 281 282 282 282 282 283 282 282 283 283 283 283 284 284 284 284 284 284 285 284 284 285 284 284 284 284 284 284 285 285 284 284 284 284 284 284 285 285 285 286 285 286 286 286 286 286 287 286 286 285
281 280 282 279 280 278 276 271 268 267 270 272 274 276 275 280 279 281 280 280 280 280 281 281 280 280 279 279 279 279 279 279 279 278 278 279 279 279 280 280 280 280 280 280 281 281 281 280 280 281 281 281 283 283 282 282 282 283 283 283 284 285 285 285 285 285 285 285 285 285 284 284 284 285 285 285 285 285 285 284 284 284 284 285 284 284 284 284 285 284 284 285 284 287 286 286 286
282 283 280 283 283 284 274 272 272 272 269 274 270 277 280 280 280 278 279 279 279 279 279 279 279 279 278 279 279 279 279 278 278 278 278 278 279 279 279 279 280 280 280 280 280 280 280 281 281 281 281 281 282 283 284 285 284 284 284 284 285 285 285 284 284 284 285 285 285 285 284 284 284 285 285 285 285 284 284 284 284 284 284 284 284 284 284 284 284 284 284 284 284 285 285 285 285
285 280 283 284 284 281 280 274 269 263 269 273 270 275 277 279 276 278 278 277 278 278 278 279 279 278 279 279 279 279 279 279 278 278 278 278 279 279 279 280 280 280 281 281 282 282 282 282 283 283 283 283 284 284 285 285 285 284 284 284 284 284 284 284 284 283 284 284 284 284 284 284 283 284 284 284 284 283 283 283 283 283 283 283 283 283 283 283 283 283 283 283 284 284 284 284 284
284 282 284 286 279 280 280 274 272 269 267 266 271 274 276 278 280 276 278 277 278 278 278 278 279 279 279 279 279 279 278 279 279 279 280 280 280 280 281 282 282 283 283 282 283 284 284 283 283 284 284 284 284 285 284 284 284 285 285 284 283 283 282 283 283 283 283 283 283 283 283 283 283 283 283 282 282 282 282 282 282 282 282 282 282 282 282 282 282 282 282 283 283 283 283 283 284
286 286 286 285 284 280 277 280 274 273 267 266 268 269 277 278 279 280 281 280 279 279 278 279 279 279 280 280 280 279 280 280 280 281 281 282 282 281 281 281 281 282 283 284 284 283 283 284 283 284 283 283 283 284 284 283 284 283 283 283 283 283 282 282 281 281 281 281 282 282 282 282 282 282 281 281 282 282 282 281 281 281 281 281 281 281 281 281 281 281 281 282 282 282 282 282 282
284 285 282 285 281 283 281 279 275 276 263 266 268 270 273 276 279 280 281 281 280 280 280 280 280 281 281 281 281 281 282 281 281 281 281 281 281 282 282 282 283 283 283 282 283 284 284 283 283 283 282 282 282 282 282 281 282 282 282 281 281 281 282 282 282 282 282 281 281 281 281 281 281 281 281 281 281 281 281 281 281 281 281 280 280 280 280 280 280 280 280 280 281 281 281 281 281
285 286 284 286 281 279 278 279 278 271 274 271 268 274 274 279 281 281 279 281 282 282 282 281 281 282 282 283 282 282 281 280 280 280 280 281 282 282 282 283 283 283 283 283 283 283 283 283 282 282 282 281 281 280 281 282 282 282 281 281 280 281 281 281 281 281 281 281 280 280 280 280 280 280 280 280 280 280 281 280 280 280 280 280 280 280 280 280 279 279 279 280 280 280 279 279 280
Wind_Speed
7 6 5 2 2 1 1 6 1 2 4 1 1 1 0 0 1 1 2 3 1 2 3 1 2 2 0 1 1 2 3 3 5 4 1 2 1 4 6 3 1 6 10 8 9 8 9 10 13 13 14 14 15 14 13 13 12 12 12 12 11 10 9 9 9 8 7 8 7 8 8 8 9 9 9 8 8 8 7 6 6 7 8 9 9 10 11 12 11 11 11 11 10 10 10 10 10
6 5 4 0 1 2 1 2 4 2 6 3 1 1 2 2 1 2 2 4 2 0 1 1 0 1 4 4 1 0 1 6 6 1 3 3 4 1 6 4 4 10 9 8 8 9 8 8 13 13 13 13 13 13 14 13 13 13 13 12 11 10 10 10 10 10 9 9 9 8 8 8 8 8 8 8 8 7 7 7 7 7 7 8 9 10 10 12 11 10 10 10 10 9 10 10 10
4 5 3 4 2 4 2 4 0 1 4 1 3 4 2 0 2 3 7 4 2 3 3 0 1 1 1 2 1 2 2 1 1 2 3 3 1 3 7 4 4 5 10 8 9 9 8 8 12 13 13 13 14 13 13 13 14 14 13 12 12 11 10 10 11 11 11 10 10 9 8 8 8 8 8 8 7 7 7 7 8 7 8 8 9 9 9 11 11 9 9 9 9 9 10 10 10
2 1 0 3 2 4 1 4 4 5 3 4 2 3 1 1 4 6 6 7 5 2 1 0 0 1 2 1 1 1 3 2 3 3 1 1 6 1 9 6 5 6 5 7 9 9 8 10 13 14 14 14 15 12 13 13 14 14 13 13 12 11 11 11 12 12 11 11 10 9 9 8 8 8 8 7 7 7 6 7 8 8 8 9 9 8 9 10 9 8 8 9 9 9 9 9 9
0 0 2 3 3 2 2 1 4 2 2 5 2 3 3 4 3 4 2 3 4 1 1 1 0 0 1 1 1 0 1 3 3 4 1 3 1 4 8 5 5 7 7 7 8 9 8 13 13 13 14 15 16 14 12 13 13 13 12 12 12 12 12 12 12 12 11 11 10 10 9 9 8 8 8 7 7 7 7 7 8 8 8 9 9 8 8 9 7 7 8 8 8 8 9 9 8
3 2 3 2 1 2 5 2 3 1 4 5 0 1 3 5 4 3 4 3 2 1 2 0 0 0 1 1 3 0 3 1 0 1 2 2 2 5 8 6 7 7 6 7 8 8 8 14 14 13 15 16 18 16 13 13 14 14 11 12 12 12 12 13 13 12 12 11 10 10 9 9 9 9 9 8 7 7 7 8 8 8 9 8 8 7 6 6 6 6 7 7 7 8 8 8 8
2 4 4 4 2 4 4 4 1 2 2 6 1 2 2 2 6 0 1 1 1 0 1 0 1 0 0 2 2 3 2 0 1 0 2 3 2 6 7 7 7 7 7 7 7 7 9 14 15 15 15 15 17 16 14 15 15 15 13 13 12 13 13 13 13 13 12 11 11 10 10 10 9 9 9 9 9 8 8 8 9 9 9 8 7 6 6 6 5 4 5 5 6 7 8 8 8
1 1 2 2 1 4 3 1 1 4 1 6 1 2 5 4 1 1 0 1 1 1 1 1 1 2 2 3 0 2 2 2 3 5 6 3 3 5 6 7 7 6 7 6 6 6 9 14 14 15 14 16 15 15 15 15 16 15 15 15 14 14 13 13 13 12 12 11 11 11 11 10 9 9 10 9 9 8 8 8 9 9 8 8 7 5 5 3 5 4 3 5 6 7 7 7 6
4 5 0 4 2 3 3 1 2 3 6 2 5 6 7 3 2 1 1 1 2 0 2 1 0 2 2 5 2 2 5 1 3 4 2 1 5 6 6 7 8 7 7 6 6 6 7 12 14 15 14 15 15 15 16 18 16 16 16 15 15 15 15 14 13 12 9 11 11 11 11 10 10 10 10 10 10 10 8 9 8 8 7 5 5 4 4 2 2 3 7 7 6 6 6 6 6
1 3 2 2 2 1 2 2 2 1 2 1 2 3 2 0 0 0 1 1 1 1 1 1 0 1 1 4 4 2 0 4 5 1 0 0 3 3 4 4 4 8 6 6 5 6 7 11 14 14 13 15 14 14 15 16 17 16 16 16 16 15 15 14 13 13 11 10 11 11 10 9 10 11 11 11 11 11 9 8 8 7 6 5 4 3 2 1 3 5 10 9 7 7 6 6 5
2 5 2 3 5 1 1 2 3 7 4 5 6 8 7 1 0 0 0 0 1 1 3 3 1 1 1 3 4 2 4 4 1 2 1 0 1 2 2 1 1 4 7 6 5 5 6 7 13 14 13 14 14 14 14 15 16 16 16 16 17 15 14 13 13 12 11 11 10 10 10 10 10 11 12 11 11 11 12 9 7 7 6 5 4 2 1 2 3 11 8 10 8 7 6 5 5
1 3 4 2 1 2 2 1 5 8 8 2 0 2 1 1 1 1 1 1 1 3 2 3 1 3 0 2 3 2 7 4 4 2 1 1 1 1 1 1 1 3 3 6 5 5 5 5 8 11 13 14 13 14 14 15 15 15 15 15 15 15 13 13 12 12 11 11 10 10 11 11 12 12 12 11 11 12 11 11 9 7 6 5 4 3 2 1 2 9 10 9 8 7 6 5 4
4 1 5 4 1 1 1 0 2 4 4 1 1 0 1 1 1 2 2 1 0 3 3 7 1 1 2 1 5 6 3 5 4 2 1 1 1 0 0 1 1 3 3 3 5 5 4 5 7 8 9 13 13 13 14 14 14 14 15 15 14 14 13 12 12 12 11 11 11 10 10 8 9 10 11 10 9 11 11 10 9 8 7 6 5 5 6 4 2 10 8 9 8 6 5 4 3
3 4 3 0 1 0 1 2 0 0 1 3 2 4 2 0 0 1 3 1 2 0 2 2 1 2 2 2 6 3 4 4 2 2 1 0 1 1 0 0 0 3 3 5 6 6 6 6 7 7 8 8 8 10 13 14 14 13 14 14 14 13 13 13 12 12 11 11 10 9 8 8 8 9 10 9 9 9 9 8 8 9 8 6 7 8 4 3 10 9 8 8 7 6 4 3 3
1 2 5 3 0 1 2 1 0 2 0 1 2 3 5 2 1 2 1 1 4 4 2 1 1 1 2 0 7 2 1 4 2 1 2 1 2 2 1 0 0 2 4 5 5 6 7 6 7 7 7 7 8 7 7 11 14 13 13 13 13 13 12 12 12 11 10 10 10 9 9 9 9 9 9 10 8 8 7 7 7 6 7 7 4 2 2 11 9 9 8 7 7 5 4 3 3
4 5 3 1 0 0 1 0 1 2 1 1 3 2 1 4 1 1 2 3 3 1 0 2 0 3 1 2 7 4 4 2 1 2 3 2 2 1 1 0 1 1 4 5 6 6 6 7 7 7 8 8 8 7 7 7 11 13 13 13 13 12 12 12 11 10 9 9 9 9 10 9 9 8 10 9 9 8 8 7 7 5 5 6 5 5 6 10 9 7 8 7 6 5 3 3 3
2 3 1 4 1 1 1 1 3 2 4 3 5 4 1 3 2 2 1 1 3 3 0 2 3 1 3 5 2 4 2 0 3 3 2 1 1 2 2 2 1 1 3 5 5 6 6 7 8 7 8 9 8 8 7 8 9 12 10 12 13 11 11 11 10 10 9 7 8 8 9 7 5 5 7 6 9 6 8 9 8 6 5 4 5 5 7 9 9 8 7 7 6 5 5 5 4
2 1 3 0 2 2 4 4 6 1 1 4 4 1 0 4 3 3 3 2 1 4 4 4 3 5 3 3 0 1 0 1 1 4 1 3 0 3 4 4 3 7 4 5 5 5 6 7 8 8 7 9 8 7 6 6 7 9 8 7 8 9 9 9 8 5 6 4 6 6 5 5 5 4 6 6 6 6 7 9 8 7 6 6 6 6 8 9 9 8 7 6 6 7 6 2 3
3 2 1 4 5 4 6 3 5 0 5 4 3 2 2 5 0 2 2 5 4 7 8 1 4 6 9 7 3 3 1 1 2 3 5 6 6 7 8 4 5 4 6 5 6 6 6 6 6 8 8 8 9 8 6 6 6 6 7 7 6 8 7 7 6 6 4 4 4 4 4 4 4 5 5 5 5 7 7 10 9 8 7 7 7 7 8 11 9 8 8 6 8 6 3 2 2
1 4 2 5 7 4 5 3 4 5 2 4 4 2 1 3 0 1 2 5 7 9 10 7 3 5 5 5 5 3 1 0 1 4 6 6 6 7 5 6 6 8 9 6 4 2 5 6 7 7 8 8 8 7 6 6 5 5 6 6 5 5 6 6 6 6 5 5 5 4 3 4 5 5 5 8 7 5 5 8 10 10 8 8 9 6 7 7 10 9 8 9 6 3 2 1 1
1 2 4 3 3 1 3 7 7 7 3 1 2 1 4 4 3 0 1 6 8 9 7 7 8 9 7 5 6 4 1 3 4 3 4 5 6 4 4 4 3 5 5 7 5 6 6 6 6 7 6 6 7 6 6 6 5 4 5 5 5 6 5 5 5 6 6 6 6 5 5 4 4 4 4 4 4 5 4 4 4 4 4 4 6 4 4 4 6 5 5 5 3 3 2 0 0
4 6 4 3 1 1 8 5 5 3 4 1 2 6 5 2 1 1 1 5 10 7 10 4 6 6 5 7 7 1 2 4 4 4 5 5 6 7 6 7 6 5 4 4 6 5 4 4 5 5 5 7 7 7 6 5 5 5 5 5 4 5 5 4 4 5 5 6 6 5 5 5 4 4 4 5 4 4 4 4 4 3 4 5 3 4 3 5 4 5 5 5 3 2 2 1 0
3 3 3 4 3 2 2 1 3 1 2 3 5 2 2 1 5 5 6 10 10 9 8 7 4 4 3 1 3 6 6 5 5 6 6 7 8 7 8 7 7 8 6 9 4 3 2 3 3 3 6 7 8 7 5 5 4 4 3 4 5 4 6 6 5 5 5 5 5 6 6 5 5 4 4 5 5 5 5 4 4 4 5 5 3 6 5 4 5 5 5 5 4 3 2 0 0
1 4 1 3 3 5 5 5 6 5 2 6 2 2 4 2 10 0 4 10 11 14 5 6 4 1 5 7 9 9 8 8 7 7 6 5 6 8 7 8 7 7 7 8 5 5 4 4 4 5 6 6 6 6 6 6 5 5 5 3 4 4 3 6 6 5 5 5 5 5 5 5 5 5 4 5 5 4 5 5 4 4 4 4 3 4 5 4 4 4 5 3 4 3 4 1 1
3 3 1 3 1 4 5 4 6 5 7 6 2 4 10 5 4 4 11 13 13 4 6 5 4 7 9 11 10 8 9 9 9 6 5 6 6 6 7 8 8 7 6 8 7 5 5 5 5 7 7 6 5 6 7 6 5 5 5 5 4 4 4 3 4 4 5 6 5 5 5 5 4 5 5 5 4 5 4 4 4 4 4 4 3 3 4 5 4 4 5 5 4 4 3 3 2
3 4 0 3 4 5 6 8 7 7 5 2 1 7 10 4 3 4 15 14 4 7 6 6 8 10 10 9 8 9 8 9 6 9 8 6 7 11 12 10 9 10 9 9 8 6 4 6 7 9 8 7 5 6 6 6 6 6 5 5 5 3 2 4 3 4 4 4 5 7 5 5 5 5 5 4 5 5 4 4 4 4 4 4 4 5 5 5 5 4 3 3 5 4 3 3 1
3 1 3 4 7 4 5 4 8 1 3 4 4 7 6 1 3 7 4 4 7 8 8 7 10 10 8 8 8 8 11 11 10 6 8 9 11 12 12 11 11 10 9 10 9 7 6 4 6 7 8 7 6 7 6 7 5 6 5 4 4 5 4 1 2 3 5 5 3 3 6 6 6 5 5 5 4 5 5 4 5 4 5 5 5 6 4 5 5 6 6 6 5 5 5 2 2
1 1 2 4 6 5 7 6 10 3 4 2 7 6 2 3 1 7 9 5 8 7 8 9 9 7 7 7 8 7 9 8 8 10 14 14 11 10 11 11 12 12 10 12 9 8 6 4 4 3 4 6 7 6 6 6 6 6 5 5 5 5 5 5 3 2 2 4 5 5 4 5 4 5 6 5 5 5 5 5 5 5 6 5 5 5 5 4 5 3 2 2 2 3 4 1 0
1 1 5 6 7 7 4 5 2 1 3 2 5 2 4 1 4 11 2 8 8 9 8 8 8 6 5 5 7 9 8 7 8 11 10 7 7 8 10 10 10 10 7 8 9 9 10 7 3 1 2 3 4 5 5 4 5 5 5 5 4 5 5 5 6 5 4 4 4 4 5 5 5 5 6 7 7 6 6 6 5 6 6 5 5 4 4 4 4 3 2 2 2 1 1 1 0
1 2 0 7 5 8 8 0 2 1 3 2 1 4 7 6 10 12 6 6 5 11 7 5 5 5 5 5 6 7 9 9 11 9 8 8 9 9 10 11 10 9 8 8 10 13 9 7 7 4 1 2 1 1 2 2 2 3 4 4 4 4 4 5 5 3 5 4 5 5 5 5 5 5 4 4 5 5 5 5 6 5 5 4 4 4 5 4 5 4 4 3 3 3 4 3 2
3 2 1 3 4 5 2 1 0 4 0 2 1 3 7 9 10 4 4 4 7 5 4 4 4 5 5 5 6 6 8 7 8 9 10 9 9 8 9 10 11 11 9 11 13 10 11 11 8 7 8 5 3 3 3 3 3 4 3 3 4 4 4 4 4 5 5 5 5 6 6 6 7 7 6 7 6 5 5 5 6 7 5 4 5 4 5 4 5 5 5 5 2 2 2 2 3
1 2 5 3 3 7 11 5 3 3 1 0 4 1 8 9 10 5 5 6 6 5 4 4 5 5 5 5 6 6 6 7 8 10 10 10 10 9 10 11 10 11 12 10 10 10 13 12 11 11 10 9 7 4 3 4 4 3 5 4 4 4 4 4 4 4 4 3 4 4 5 5 4 4 3 4 5 5 6 6 7 4 4 5 4 4 4 5 5 4 3 5 5 4 3 5 3
4 3 4 3 1 5 9 1 1 2 1 2 2 5 4 6 6 5 5 7 6 6 4 4 5 5 5 6 6 5 7 9 10 11 12 10 9 9 9 10 10 10 10 11 11 11 13 13 13 13 12 10 8 8 7 5 5 4 4 4 4 3 2 1 1 1 1 2 3 4 4 5 5 5 5 6 6 6 6 6 5 5 4 5 5 5 5 5 5 4 3 4 4 6 5 5 3
4 1 5 4 3 2 3 8 0 2 2 1 0 2 6 8 11 7 10 10 3 6 5 5 5 5 5 5 6 7 8 8 11 11 12 10 8 10 9 8 9 9 9 11 10 11 10 10 11 12 11 10 8 8 7 6 6 7 7 7 7 7 6 5 4 4 5 4 3 3 2 1 1 2 3 3 4 5 4 4 3 4 5 5 5 5 4 2 3 4 5 4 5 4 5 5 6
4 2 2 6 2 4 8 0 3 5 1 1 1 3 8 12 11 5 6 9 6 7 6 5 6 6 6 6 7 7 8 10 9 8 9 10 11 9 9 9 10 11 10 11 12 12 11 11 11 13 13 12 10 9 8 7 8 7 7 8 9 8 7 7 6 7 5 6 5 5 5 5 5 3 2 1 1 1 1 2 3 3 4 5 5 5 4 4 4 5 6 5 3 3 3 4 5
7 5 4 3 4 5 5 6 6 1 5 6 4 7 8 8 8 4 8 7 9 7 5 6 6 5 6 6 6 7 7 9 6 8 8 9 9 10 9 8 9 9 11 11 13 14 13 13 11 13 12 10 9 9 9 8 8 9 9 8 10 9 8 9 9 8 7 8 7 7 7 6 6 6 6 6 5 5 4 3 2 2 1 3 5 5 6 6 8 6 6 4 3 1 1 1 2
1 2 2 5 6 6 4 4 6 0 2 6 6 4 4 8 4 4 5 4 8 6 7 6 5 5 6 6 6 6 8 7 5 6 9 9 10 9 8 9 9 12 13 13 14 14 13 11 13 14 10 11 10 10 9 8 7 7 8 9 8 7 7 9 10 9 9 9 9 9 9 8 8 8 7 7 6 6 6 5 6 5 4 3 2 3 2 2 1 0 1 1 3 3 3 0 1
1 1 2 7 3 9 5 4 1 1 3 3 0 3 8 7 4 6 4 6 7 4 5 6 6 5 5 6 7 7 4 4 8 11 11 10 11 11 10 10 12 15 13 13 13 12 11 13 13 11 11 11 11 9 6 8 6 4 5 5 7 8 9 11 10 10 9 9 12 12 10 9 10 9 8 8 8 7 6 5 5 4 4 3 3 4 5 4 3 2 1 1 0 4 3 2 2
1 4 3 3 8 4 10 4 3 2 2 8 2 3 9 4 3 5 6 6 4 4 4 3 5 6 6 6 6 6 7 8 8 7 8 8 9 10 9 10 11 10 11 12 10 12 13 12 11 10 10 10 10 10 9 7 6 7 7 7 6 6 7 6 8 8 9 11 12 12 12 11 11 11 10 9 8 8 7 7 6 5 5 4 4 3 3 3 3 2 1 2 1 1 1 1 4
3 1 1 8 3 1 6 3 2 1 1 2 1 4 9 1 4 7 6 3 4 5 7 7 6 7 7 6 5 6 6 7 8 8 8 8 8 9 11 11 9 9 10 11 12 11 10 11 11 11 11 10 10 10 8 6 5 5 7 8 9 10 6 6 10 12 13 14 13 12 12 11 12 11 11 11 9 9 8 7 6 6 5 4 4 4 3 3 3 1 2 2 3 3 2 2 2
2 5 5 4 5 5 8 6 2 2 0 1 2 5 7 2 3 2 3 3 6 4 6 7 7 6 4 4 6 6 6 6 7 8 8 9 11 11 10 8 7 10 11 11 11 10 8 10 10 11 11 11 10 11 10 7 9 9 7 9 9 10 13 12 12 12 10 9 11 12 11 11 12 11 11 12 11 10 9 8 7 6 6 5 5 4 4 2 1 0 0 1 1 2 5 2 0
3 6 12 10 7 6 4 3 4 6 3 2 2 4 3 2 4 3 3 2 3 3 6 6 5 6 6 7 6 5 6 5 5 6 7 7 7 7 8 9 11 11 12 10 9 9 10 10 11 12 11 11 12 12 11 11 11 11 11 11 11 10 11 12 11 9 10 10 8 6 11 12 12 11 11 12 11 10 10 9 8 8 7 6 5 5 4 4 4 2 0 1 2 2 2 4 3
1 6 8 11 7 4 3 2 2 2 2 1 2 0 6 5 1 5 4 3 4 3 4 3 5 5 5 5 4 5 5 6 6 6 6 8 7 8 10 12 10 11 9 7 8 9 10 10 11 12 12 11 11 11 12 10 12 11 12 11 9 9 9 6 4 5 6 6 8 11 9 11 11 12 11 11 11 11 9 9 9 8 8 8 8 7 8 6 5 4 2 0 2 2 1 3 5
4 2 3 3 4 5 4 4 4 4 1 4 0 1 5 3 8 2 7 7 3 3 2 3 3 3 4 3 4 4 5 4 4 5 6 6 7 9 10 9 9 8 6 7 9 9 11 11 12 12 12 12 11 10 13 11 11 10 11 11 10 10 9 7 8 7 8 8 12 11 10 10 11 11 11 11 11 11 10 10 9 9 9 8 8 8 8 7 7 6 5 3 2 2 2 3 4
3 0 5 3 4 3 4 2 2 0 1 6 5 1 2 4 6 2 7 6 2 3 3 1 2 2 2 3 3 3 3 3 3 4 6 6 7 8 7 9 6 6 7 9 9 8 8 9 11 13 14 13 12 13 13 13 12 11 10 9 11 8 8 7 7 9 10 10 13 11 11 11 11 12 12 12 11 11 10 9 9 10 9 8 7 7 7 7 7 7 7 7 5 4 2 2 3
2 5 6 6 6 5 3 2 2 1 1 5 5 2 3 6 5 1 0 2 5 6 6 4 3 2 1 1 1 2 3 3 3 4 4 5 5 6 5 4 8 7 6 7 7 8 8 8 11 15 14 11 11 12 13 14 13 11 13 12 13 10 8 8 9 11 10 9 11 10 9 10 9 11 11 12 12 11 11 10 9 9 8 8 7 7 7 8 7 6 5 4 4 4 4 2 2
4 4 4 4 7 3 3 6 2 1 4 6 11 8 6 6 4 5 6 5 1 6 1 2 2 1 0 0 1 1 2 3 3 4 4 4 4 5 4 9 6 6 6 7 8 8 7 9 10 15 11 10 11 11 12 12 11 11 12 12 12 11 10 10 11 11 10 11 10 9 8 8 8 8 9 10 11 11 11 10 10 9 8 8 8 8 7 7 7 6 5 4 5 4 5 4 4
3 1 2 4 3 6 2 3 4 1 7 5 2 4 4 6 4 3 2 2 2 7 9 10 7 5 4 3 1 1 2 2 3 4 4 4 5 6 5 8 7 6 7 9 8 8 9 8 9 13 11 11 10 10 11 11 10 11 10 10 12 10 10 10 11 10 9 10 9 9 7 8 9 7 8 9 10 10 9 9 9 9 10 9 9 7 7 6 6 6 6 6 5 4 3 3 3
4 5 5 2 4 6 3 2 2 5 5 0 2 3 1 9 5 0 3 3 4 3 4 12 11 8 6 4 2 1 1 2 3 3 3 3 4 4 6 5 5 7 8 7 8 7 7 8 9 13 11 9 10 9 11 10 10 9 9 9 8 8 9 9 8 9 7 8 7 8 9 9 8 10 10 10 10 9 8 9 9 9 9 8 8 8 8 8 7 6 6 5 5 5 5 3 3
5 5 4 5 0 1 3 5 2 5 5 3 1 0 4 3 4 1 3 3 4 6 3 8 10 10 8 5 3 1 1 1 1 2 2 2 3 4 4 4 5 5 6 7 6 7 6 7 7 11 8 7 8 9 9 10 10 8 8 8 7 7 8 8 8 8 6 6 6 7 7 7 7 8 8 9 8 8 8 7 7 8 7 7 8 7 7 7 7 7 6 7 6 5 4 4 3
7 2 7 7 7 5 4 3 4 5 4 2 5 1 5 2 2 2 2 2 3 3 5 7 6 5 4 3 3 2 1 1 1 1 2 3 3 3 4 4 5 4 5 5 5 5 6 7 7 8 8 7 7 8 8 9 8 8 7 7 7 7 7 7 6 6 6 7 6 7 6 6 6 6 6 6 7 8 8 8 7 7 8 8 8 9 8 8 8 7 6 6 6 6 6 5 4
1 3 5 5 7 5 4 4 2 2 2 3 1 5 3 3 0 1 1 3 5 4 6 6 6 4 4 4 4 4 3 2 1 2 2 1 2 2 3 4 4 4 4 4 5 4 6 5 5 5 6 5 5 6 6 6 5 5 5 7 7 6 6 6 5 5 5 5 5 6 6 5 5 5 5 5 6 6 7 8 9 9 8 8 8 7 7 7 8 8 8 7 8 4 7 7 6
4 4 4 6 2 4 1 2 1 1 2 8 2 6 3 0 1 3 2 4 3 3 4 5 5 5 4 5 5 4 4 3 3 3 3 3 1 1 2 3 4 4 4 4 4 4 5 4 5 6 5 4 5 4 5 4 4 5 5 5 5 5 5 6 5 5 4 4 4 4 4 4 3 4 4 3 5 5 5 6 7 8 8 8 8 8 8 7 7 6 7 8 8 7 6 7 6
7 2 7 2 2 4 4 4 2 3 4 7 3 6 4 1 8 1 1 2 2 1 4 4 4 4 6 6 6 6 5 4 4 3 3 3 3 3 2 2 3 4 4 4 4 3 3 4 4 5 5 6 4 4 4 4 4 4 4 4 4 4 4 4 4 4 3 4 4 4 4 5 5 5 4 4 5 6 6 6 6 7 7 7 7 7 7 7 7 7 7 6 6 6 7 7 6
3 3 2 4 3 1 1 3 4 4 4 5 4 1 4 7 6 2 4 7 8 6 6 6 8 8 8 7 6 5 3 3 4 4 4 4 3 3 3 4 3 3 3 3 3 3 3 3 3 4 5 4 3 3 2 3 3 3 3 3 3 3 3 3 3 3 3 5 6 5 6 5 5 6 6 6 6 6 6 6 6 7 7 7 6 6 6 7 6 7 8 7 7 6 7 8 7
2 3 3 1 1 2 4 5 3 4 4 1 8 2 9 4 4 10 9 12 10 10 8 11 10 9 8 7 8 7 6 6 6 5 5 5 5 4 5 5 4 4 3 2 3 3 3 3 4 4 4 3 4 4 3 4 3 3 3 3 3 3 3 3 3 4 6 6 6 7 8 8 8 7 7 7 8 8 8 8 7 7 7 6 7 7 6 6 6 6 7 8 8 8 8 8 8
1 2 1 0 0 2 3 1 4 4 4 4 3 8 5 3 4 5 6 10 15 16 15 11 11 11 10 10 10 9 8 7 7 7 6 6 5 5 4 4 4 2 1 2 3 3 2 3 3 3 4 3 3 3 3 3 4 5 5 6 6 7 7 6 7 7 7 7 8 8 8 7 7 8 8 9 9 8 8 9 9 9 9 8 8 8 7 6 6 8 7 7 8 9 10 9 8
7 9 8 9 7 3 3 9 3 1 3 6 3 12 4 4 1 1 2 6 13 15 14 14 12 11 13 10 6 6 8 7 7 6 5 5 5 4 4 1 0 2 3 3 2 2 2 2 2 3 3 3 3 4 4 4 4 5 6 7 7 6 6 7 7 7 8 7 7 8 8 9 9 9 9 11 12 12 11 12 12 12 12 11 10 10 9 7 8 9 8 6 8 9 9 10 9
Wind_Direction
312 302 294 277 59 119 51 358 164 325 62 9 358 357 190 121 230 26 263 339 2 252 200 72 133 100 188 201 194 206 205 116 211 113 250 237 235 237 219 225 231 142 148 156 170 174 184 190 183 182 179 175 176 175 172 170 170 168 169 167 167 167 166 162 155 155 160 156 150 146 143 146 146 143 143 139 134 127 110 108 116 121 125 123 119 106 101 95 89 83 79 73 69 65 63 61 56
288 299 303 260 193 72 242 122 96 356 38 67 226 85 251 284 49 218 215 198 208 251 319 148 88 73 42 89 165 141 275 223 170 201 271 247 289 254 205 200 182 157 153 155 168 175 179 185 184 182 181 178 178 175 173 171 173 172 173 171 173 171 170 166 165 166 167 160 157 155 153 152 150 146 145 143 139 133 123 124 126 133 128 124 119 113 102 94 89 82 78 74 65 60 59 54 49
299 340 359 33 35 72 87 33 299 45 85 64 277 205 335 137 219 248 223 213 240 272 303 211 151 105 39 19 3 133 258 267 287 281 240 330 18 252 179 182 184 163 153 158 164 174 179 183 183 182 180 180 180 179 175 175 175 175 175 172 175 174 175 171 173 171 168 165 163 161 159 156 155 153 149 145 142 138 133 139 139 139 131 123 120 117 111 97 87 82 79 74 67 59 56 52 44
256 9 265 56 243 32 53 27 83 121 111 199 317 282 184 183 243 214 240 249 271 326 329 308 115 226 119 4 230 83 290 332 195 164 301 239 200 194 158 167 166 147 152 159 168 171 178 183 181 183 180 180 183 184 179 181 178 176 175 175 177 178 178 178 178 176 173 170 168 165 166 161 159 158 153 144 145 139 142 144 140 133 133 122 123 120 109 99 90 84 79 72 65 58 54 51 47
89 322 84 101 104 3 100 96 132 102 117 206 108 278 257 215 233 246 271 280 276 235 330 192 93 307 194 160 164 143 258 252 304 185 251 264 272 174 149 154 145 152 163 169 167 171 178 182 182 184 181 180 184 181 181 182 181 177 177 178 182 182 180 183 182 180 179 175 173 173 169 167 167 166 157 153 151 149 148 141 129 123 121 123 123 129 116 104 104 87 74 68 61 54 49 44 42
64 36 11 83 59 160 51 58 30 311 214 149 192 244 236 223 201 224 276 302 279 233 221 67 193 310 336 240 182 164 202 60 208 255 185 277 200 164 150 148 147 159 166 169 172 171 178 183 184 185 182 182 186 181 178 182 181 181 181 184 188 190 185 188 185 183 182 181 182 180 174 174 174 172 164 158 159 156 148 140 140 133 128 128 127 123 105 103 103 93 72 65 56 51 44 38 35
353 35 357 23 27 51 147 126 215 197 286 164 221 259 241 258 226 36 325 355 263 17 166 282 41 14 44 313 328 243 193 105 112 250 177 311 165 147 148 150 149 163 168 172 174 176 180 183 185 186 182 183 188 183 178 181 183 185 184 190 190 195 192 192 189 189 187 184 190 185 183 184 180 175 169 162 158 161 155 152 148 142 142 138 127 109 114 97 93 80 78 57 50 51 45 40 33
95 103 320 101 295 46 47 158 238 162 346 168 227 269 277 247 222 236 256 91 302 22 326 266 5 121 260 53 279 274 325 201 248 297 276 263 168 149 154 150 155 170 172 172 175 179 181 184 187 187 184 184 187 184 179 182 186 183 185 190 195 195 194 195 195 194 191 192 195 191 191 192 175 183 173 165 158 162 158 160 152 144 144 141 135 142 114 125 77 101 87 77 61 50 45 44 38
360 89 251 67 45 29 54 54 279 246 287 296 286 223 268 235 173 193 81 253 304 257 317 333 289 28 250 350 228 264 291 294 294 293 298 180 164 160 155 164 162 169 176 175 176 175 182 188 188 188 187 187 189 184 183 185 188 186 185 188 193 193 192 195 199 201 193 200 199 199 197 191 178 183 177 166 160 160 161 158 157 152 151 162 160 159 162 170 200 110 129 105 74 54 43 42 41
29 68 332 101 135 23 8 298 52 189 240 249 279 287 278 311 257 165 136 38 251 325 264 256 216 248 323 284 307 337 273 335 304 360 17 165 143 134 157 174 172 162 172 179 177 178 185 190 189 190 190 189 191 186 184 186 189 187 186 186 190 193 192 193 198 200 201 205 204 207 203 196 190 185 178 172 167 160 163 167 162 161 141 128 115 112 59 291 157 156 121 105 80 59 44 40 40
356 8 138 69 29 52 24 273 266 313 291 319 295 240 240 240 176 89 354 242 352 198 318 154 9 257 52 278 222 265 310 341 360 249 236 277 70 127 147 224 172 176 169 181 181 180 183 190 194 191 191 192 192 189 187 187 189 186 187 187 192 193 192 195 195 199 198 206 207 206 202 199 191 183 180 182 171 167 157 157 156 157 155 156 139 118 70 31 21 103 111 98 89 69 53 39 33
345 18 7 102 117 152 235 184 291 282 304 325 284 332 206 160 124 5 339 37 314 315 213 108 276 151 320 342 304 301 312 311 227 245 285 342 81 99 137 121 195 188 189 178 175 186 187 189 194 198 193 194 194 191 189 191 192 189 187 189 192 195 194 193 195 199 196 202 202 209 204 200 191 190 184 185 176 173 168 162 164 177 176 163 157 179 144 214 249 113 104 93 85 75 64 45 35
98 86 71 79 208 144 196 307 254 290 331 324 253 36 360 173 224 196 220 224 223 346 338 211 115 83 293 197 261 315 347 278 224 246 291 311 135 64 65 124 172 194 172 181 177 189 191 193 197 199 200 196 197 194 190 192 194 193 190 191 193 194 195 194 194 199 198 196 198 204 205 199 194 193 184 188 183 177 172 162 169 180 178 174 191 182 179 222 113 107 97 95 88 81 75 54 49
111 179 127 28 60 123 172 256 357 70 326 291 273 279 315 306 267 215 128 333 290 256 253 173 115 143 269 14 314 345 275 291 285 294 303 5 46 43 42 72 135 191 184 178 190 190 191 196 198 201 201 200 201 198 194 192 195 196 194 195 195 196 195 194 196 199 200 194 193 195 196 190 183 187 189 191 189 177 172 162 163 182 185 202 208 230 269 238 116 114 109 101 96 92 78 68 63
104 148 82 117 17 44 252 89 323 131 81 20 287 0 346 278 110 102 228 218 279 210 308 158 199 91 256 302 286 248 275 301 338 17 77 53 33 34 16 47 64 192 192 193 199 189 195 194 198 200 201 201 202 199 198 197 195 198 196 198 199 198 197 196 196 198 200 196 189 187 178 174 183 184 181 188 184 167 160 152 167 176 195 213 220 101 162 110 123 117 113 107 104 95 94 70 73
141 84 74 93 265 58 273 193 53 85 274 206 294 269 320 292 167 75 262 179 260 306 73 229 22 235 243 170 247 252 270 322 339 56 69 54 360 15 14 353 40 231 209 198 204 205 196 193 196 199 200 203 201 201 202 198 201 199 199 198 200 202 199 199 198 196 193 194 190 181 174 172 180 185 181 177 172 169 159 159 173 181 198 207 174 171 135 125 122 122 117 114 111 109 100 80 72
60 82 34 29 297 162 259 172 152 269 257 285 301 23 18 293 283 237 155 132 274 273 345 243 219 13 203 214 243 293 322 6 58 70 87 42 6 311 333 298 301 313 234 222 206 206 202 199 199 198 202 202 202 201 202 202 201 202 203 200 199 201 199 198 200 195 188 194 190 184 173 171 175 180 183 176 174 170 167 167 176 180 182 173 161 179 146 134 133 126 122 121 119 109 80 55 27
54 67 112 297 201 142 206 185 188 196 251 279 340 61 295 305 330 294 353 288 325 301 291 279 301 266 232 249 167 293 306 85 79 124 148 208 28 253 272 258 236 232 226 230 229 210 204 207 202 200 199 203 201 202 203 202 198 198 202 202 199 197 198 195 195 193 188 183 192 179 172 171 172 178 180 177 175 171 172 175 173 172 176 159 168 181 150 143 139 134 131 129 126 101 81 51 16
93 128 91 226 187 239 157 203 214 163 265 245 279 298 215 251 154 297 330 290 331 327 294 186 267 296 310 299 333 36 67 76 145 169 185 205 212 219 224 233 243 256 256 233 227 208 209 210 206 204 202 200 200 204 206 206 200 191 203 200 199 195 192 192 187 185 180 180 180 177 169 166 176 177 179 175 173 174 175 177 175 173 175 172 175 170 167 147 147 145 139 141 113 91 71 57 35
207 116 227 253 208 242 218 194 233 193 244 290 312 302 162 252 185 301 266 285 320 291 290 322 292 280 291 287 342 6 25 307 247 205 214 223 224 222 231 232 238 232 231 225 238 203 210 209 208 208 204 199 199 202 203 203 204 187 198 199 195 193 190 191 186 178 177 178 177 170 168 170 176 179 181 173 162 162 178 185 177 173 176 177 176 164 164 167 147 148 147 119 92 84 82 59 47
252 93 185 229 203 143 266 194 235 240 174 224 253 304 325 295 221 118 241 345 293 273 246 214 271 294 303 310 304 330 300 274 274 277 275 269 267 276 275 290 308 329 333 322 281 226 205 208 201 209 201 201 202 203 201 204 194 189 192 197 193 189 189 189 188 179 178 175 175 170 169 168 175 171 160 159 170 163 163 182 192 159 150 167 162 147 143 141 122 116 97 99 116 119 112 70 66
114 209 206 172 130 265 255 235 227 190 193 202 291 337 283 322 290 169 180 263 272 271 283 198 231 287 335 331 317 315 281 273 285 300 286 303 312 302 306 290 282 277 299 293 257 310 296 244 213 198 193 199 201 201 202 199 190 201 193 193 192 188 188 191 192 185 177 174 170 171 161 165 168 167 161 166 165 166 166 177 184 153 148 163 150 143 135 131 128 123 129 128 134 116 114 92 58
222 315 263 213 209 245 278 299 203 109 322 312 312 267 349 25 285 254 237 228 250 250 257 298 30 352 292 248 324 338 359 346 339 325 328 329 323 317 304 289 290 286 266 257 252 215 217 258 279 248 210 198 201 196 192 189 202 201 196 184 185 201 185 192 203 194 178 168 171 167 166 171 170 170 173 175 176 168 175 178 177 168 162 165 161 147 150 148 145 144 144 148 145 138 133 77 5
143 246 359 304 171 221 256 271 299 298 163 258 199 355 298 296 300 326 260 253 241 268 310 357 59 9 15 40 26 42 42 34 27 26 21 7 348 336 333 329 317 298 274 271 253 234 207 204 198 215 223 209 203 190 191 194 190 186 187 185 196 182 191 186 190 192 163 170 172 168 171 171 173 172 182 182 183 169 181 179 173 168 161 173 158 151 147 140 140 138 143 141 148 165 176 243 326
184 270 242 258 175 241 271 271 295 277 270 264 306 290 266 216 238 353 273 273 270 298 31 39 61 48 42 46 36 32 35 23 16 360 9 9 353 332 349 348 342 337 328 306 280 249 224 199 190 210 209 210 200 185 198 198 189 185 179 179 188 185 192 217 184 165 167 165 167 166 169 171 177 178 182 187 155 189 171 170 170 180 166 165 152 161 154 157 156 158 162 167 168 172 190 235 301
201 220 291 314 299 307 297 310 271 261 270 210 313 260 272 275 199 235 251 266 305 50 40 31 64 57 48 44 37 36 34 30 11 12 4 344 353 3 2 353 343 352 330 311 309 284 247 199 197 203 203 197 187 184 200 192 191 192 192 190 186 168 205 185 175 172 154 151 167 168 179 174 182 184 185 171 175 185 176 171 170 169 182 172 169 175 183 165 166 160 158 163 169 176 193 226 217
168 228 232 273 272 323 290 230 277 219 235 223 242 277 278 334 69 284 282 266 38 39 39 35 69 63 45 43 35 30 35 25 14 341 10 11 11 10 349 351 359 340 331 335 331 315 294 246 217 202 191 181 174 192 192 196 179 197 195 184 174 198 201 176 161 166 161 156 166 173 166 178 179 182 180 178 188 178 179 177 192 172 183 189 189 191 175 177 167 178 181 179 181 178 203 207 177
96 198 296 276 296 260 249 268 273 323 305 197 188 248 295 295 119 234 255 73 61 66 44 51 60 57 47 39 41 30 38 20 12 21 20 9 3 353 350 356 345 342 348 343 335 321 325 303 280 245 198 175 175 192 181 186 187 187 176 170 183 181 177 183 174 150 157 168 161 171 177 177 178 180 174 174 184 182 184 191 188 181 202 194 194 184 175 171 170 164 149 163 171 173 184 177 185
195 40 319 299 340 330 277 250 299 116 269 154 165 320 312 356 218 242 296 6 45 70 62 55 57 54 46 41 42 37 28 17 21 29 15 2 349 352 353 352 347 343 342 338 337 359 3 341 331 296 185 165 178 185 183 177 166 162 168 179 172 162 173 175 178 176 180 177 170 177 181 181 185 187 186 182 187 190 190 190 191 203 203 195 191 175 157 140 125 129 134 115 121 126 145 246 9
117 31 126 326 357 321 290 98 39 84 252 172 198 298 277 267 245 273 17 1 59 58 55 56 63 52 45 42 46 42 29 25 27 22 8 3 357 355 358 351 353 356 345 349 2 16 2 7 359 25 50 98 106 103 126 142 142 139 150 160 158 162 173 177 182 181 178 181 189 200 197 192 191 198 183 183 182 186 190 195 198 204 206 194 171 159 167 163 155 156 170 144 170 173 205 226 212
259 259 60 260 3 276 281 51 304 343 249 206 96 209 281 277 288 303 35 57 63 76 66 68 57 50 45 38 40 44 36 33 27 16 11 8 3 0 1 356 0 1 2 8 14 2 18 19 17 30 16 40 71 75 102 111 121 127 132 142 159 170 172 186 193 194 200 205 188 196 195 198 202 194 184 180 186 187 188 199 202 210 191 171 174 182 165 168 162 179 157 176 165 194 208 228 206
7 28 295 331 176 277 301 286 194 194 346 72 116 277 241 272 281 303 40 22 40 89 79 61 57 50 42 36 36 35 34 25 23 21 14 8 8 4 4 2 0 9 13 7 10 13 25 23 21 33 29 28 21 30 72 103 113 126 136 148 159 168 168 183 184 193 199 182 189 198 193 196 194 204 196 180 179 189 194 201 212 187 176 168 173 164 155 174 179 169 188 168 177 227 207 245 199
347 178 270 277 207 267 335 348 292 168 84 11 141 249 323 301 266 303 15 20 46 98 85 69 61 53 43 38 33 26 27 22 22 17 12 7 5 5 4 4 7 9 14 17 16 19 26 20 24 27 25 22 25 26 30 38 50 65 72 76 80 69 60 49 41 48 113 172 193 205 195 194 200 196 193 192 188 192 200 208 205 183 167 174 171 171 183 177 169 173 188 208 195 201 203 233 239
284 19 217 210 208 247 254 304 47 46 89 305 319 196 244 261 283 318 5 2 47 102 95 72 62 54 45 44 38 34 32 27 23 7 3 6 360 4 5 5 7 12 22 23 24 30 28 23 27 27 22 19 26 33 38 47 47 49 46 47 48 52 46 42 41 46 33 23 18 348 348 327 242 207 199 196 205 207 207 205 167 165 167 166 170 171 184 142 168 174 197 215 206 188 203 213 230
213 178 221 284 260 217 247 248 263 8 69 264 292 257 266 267 279 345 359 2 69 82 87 76 62 51 45 41 38 34 35 33 18 3 2 2 6 4 7 7 12 18 22 23 28 28 31 26 27 29 24 14 17 25 29 45 47 54 60 53 51 44 43 43 42 48 38 40 37 37 33 28 15 12 5 355 302 289 212 198 168 164 160 160 156 160 151 166 178 200 201 208 215 221 208 216 223
216 209 212 182 233 252 214 234 279 46 306 312 259 253 269 277 285 344 358 15 77 89 80 71 59 52 48 47 40 37 33 33 8 7 8 9 10 8 9 8 19 22 25 25 30 30 28 27 28 31 23 14 19 27 27 32 46 45 44 39 44 31 38 43 40 40 35 40 33 41 41 39 43 41 32 27 27 18 17 24 44 58 103 139 153 164 186 183 196 192 216 195 199 250 29 139 138
108 109 152 223 231 271 283 273 258 104 319 248 261 284 258 272 292 340 356 18 58 62 69 68 58 53 46 43 41 35 37 27 351 13 17 14 13 12 13 19 18 29 27 24 31 30 31 29 33 30 15 21 28 22 25 28 29 32 44 49 58 36 38 43 43 30 36 33 33 38 39 37 42 45 38 39 36 33 35 32 38 32 23 14 358 338 344 330 357 294 97 119 175 202 256 104 86
182 236 230 273 211 262 255 253 354 321 166 294 43 294 275 263 341 4 11 54 46 47 78 69 68 58 50 44 38 30 17 14 18 21 15 16 16 15 19 25 22 30 18 23 29 29 30 32 37 29 23 26 28 25 20 42 27 33 68 55 71 47 40 40 34 27 25 35 33 29 27 31 36 36 35 43 46 46 43 42 41 36 40 30 21 19 30 33 22 21 65 134 131 194 240 131 188
168 213 241 290 267 247 275 275 321 277 108 261 347 296 283 318 21 27 48 59 58 47 56 65 73 59 47 37 34 27 27 25 22 20 18 20 18 20 27 29 30 30 27 26 19 31 31 34 32 34 31 31 26 22 29 33 25 33 49 42 45 76 56 55 58 41 34 37 35 30 26 24 26 28 24 29 38 34 40 42 35 39 52 51 35 24 28 28 41 32 1 315 336 17 37 149 184
159 128 135 234 230 14 300 286 1 14 176 272 222 261 274 36 70 60 32 56 77 61 65 65 61 67 60 49 37 32 25 23 25 16 18 17 24 28 31 30 23 31 33 27 22 27 32 33 33 35 34 34 31 24 34 32 49 57 56 60 57 64 53 34 45 37 31 33 32 28 31 27 28 31 25 26 28 30 27 33 27 32 34 43 52 31 27 28 53 45 39 351 22 304 292 273 215
262 187 210 242 244 228 185 254 319 294 21 68 336 293 292 271 201 66 62 64 70 42 55 54 46 49 52 54 49 33 37 21 22 20 19 21 28 29 29 26 23 38 36 30 23 23 33 34 35 39 37 34 32 27 27 34 44 45 44 52 48 42 32 30 31 26 26 32 35 30 24 28 30 32 27 27 27 23 23 20 25 25 31 23 29 30 28 27 71 119 115 337 287 272 292 318 356
307 226 203 219 221 223 256 318 356 9 339 338 67 342 304 318 287 171 167 58 45 24 54 43 39 34 33 42 33 22 28 28 29 23 21 21 29 29 32 32 34 33 34 26 21 22 29 37 38 40 42 36 31 27 26 42 48 51 49 49 45 47 44 30 28 15 15 24 26 23 31 29 28 30 28 27 28 25 23 18 18 19 21 19 21 22 14 13 20 11 77 176 244 225 250 327 298
74 272 195 219 213 199 167 188 85 291 225 299 43 66 267 320 269 195 160 100 83 34 50 48 35 35 38 32 29 24 22 17 18 28 23 31 22 36 33 34 28 33 24 21 31 27 29 38 44 46 46 41 33 33 33 42 51 51 57 62 62 60 66 43 34 31 33 24 35 33 28 29 28 29 25 26 23 23 25 23 22 24 22 16 7 19 19 14 1 5 14 99 252 265 191 265 272
237 255 137 143 153 174 190 147 164 226 273 298 22 168 252 303 285 191 151 119 98 74 52 37 47 40 37 35 25 23 17 16 16 22 24 27 30 34 38 29 31 26 12 31 41 34 32 34 45 49 49 46 38 36 42 42 54 51 56 57 53 52 53 47 30 30 35 33 39 29 29 27 27 30 27 24 23 21 21 23 23 27 29 22 20 22 16 1 5 7 9 360 343 331 295 251 277
222 219 117 131 153 166 134 117 148 231 27 286 313 304 309 261 254 33 144 123 215 184 178 128 82 60 48 41 25 16 16 10 18 30 28 27 30 30 30 38 22 27 28 38 40 39 36 34 47 55 52 49 40 41 47 45 52 55 58 58 60 47 51 45 43 41 39 33 43 29 32 27 27 28 30 27 23 20 21 19 21 26 27 20 24 23 20 18 18 10 7 3 4 342 311 291 315
251 139 89 79 76 66 92 100 97 337 74 263 253 181 239 273 269 73 333 276 210 202 194 175 150 132 112 77 43 29 15 24 18 34 33 33 28 32 24 45 42 31 27 40 46 48 45 43 46 54 52 51 46 48 51 51 51 54 57 54 59 50 42 44 48 43 39 36 45 35 31 31 25 27 24 26 24 20 20 18 20 23 22 21 25 20 16 16 12 13 9 1 354 354 344 343 288
122 86 68 16 38 32 31 60 93 46 256 242 216 202 174 289 268 201 157 212 196 147 135 146 130 110 154 247 75 52 34 15 20 30 31 34 29 39 26 53 43 36 33 45 47 46 47 49 50 57 50 53 51 52 54 56 56 57 62 61 60 57 49 51 50 43 37 38 40 33 31 28 29 28 23 23 24 17 17 20 19 16 19 19 21 19 15 10 2 359 357 9 20 14 352 351 342
114 83 116 34 336 13 31 342 41 172 267 261 290 219 172 194 288 281 238 324 250 188 180 172 170 173 181 183 180 80 25 22 27 41 32 24 40 39 45 54 45 37 45 46 44 45 48 49 54 63 49 49 51 53 58 59 62 61 65 65 65 61 58 56 54 49 37 41 35 33 23 29 24 25 26 24 21 14 15 14 13 16 17 13 14 5 13 9 0 1 4 6 2 0 12 17 359
79 80 50 103 263 30 314 17 287 214 223 300 5 137 17 242 223 200 307 307 315 280 215 174 160 169 179 182 184 67 38 38 40 45 40 34 53 50 54 53 53 46 49 47 46 48 49 53 54 65 50 46 51 50 58 57 59 58 60 64 66 65 64 64 61 58 44 44 35 34 29 28 18 22 18 18 13 13 13 13 12 13 8 8 5 8 4 5 2 1 2 358 1 6 351 351 354
120 147 136 91 286 8 274 274 236 308 290 287 201 354 278 249 292 115 270 306 298 284 211 144 154 162 164 165 161 130 60 46 49 52 68 72 77 76 69 74 67 61 55 53 51 55 53 57 53 67 60 48 52 54 54 58 54 54 52 57 58 58 59 59 56 57 48 50 42 42 38 30 25 24 14 15 1 3 12 11 9 7 7 3 5 3 4 1 2 358 355 357 353 338 344 349 332
203 113 146 180 141 153 238 189 225 232 219 288 282 59 230 131 213 329 269 312 351 22 92 123 134 140 143 141 133 122 97 69 61 100 111 110 92 89 88 74 74 74 65 59 62 61 66 63 58 65 64 46 54 56 56 57 54 49 51 55 57 55 59 58 56 53 49 47 39 42 37 30 29 14 15 0 1 7 3 6 6 5 2 0 0 1 359 358 360 353 358 349 348 347 342 339 337
158 159 79 89 232 132 231 205 162 257 323 328 198 207 196 165 279 268 37 56 46 51 97 119 124 121 124 137 162 175 173 172 185 176 154 127 114 102 93 86 83 81 77 71 66 67 72 72 73 71 73 65 62 65 62 66 61 58 55 58 55 56 57 58 55 46 44 45 41 41 31 28 19 8 1 3 1 4 1 358 359 358 356 357 357 356 355 355 351 352 346 350 345 349 341 338 332
218 102 191 209 122 109 45 5 34 65 39 258 144 305 300 272 78 20 360 59 39 71 107 129 142 154 162 178 188 191 190 187 195 195 181 160 155 147 126 120 104 90 86 85 85 85 93 85 78 69 64 60 59 62 69 68 68 68 60 66 65 66 64 63 62 56 51 41 46 37 36 14 8 9 353 351 349 355 356 356 354 351 350 350 349 350 349 347 346 344 340 337 339 336 338 330 324
98 161 234 134 129 114 134 229 331 66 208 267 88 213 280 52 281 56 9 83 170 167 175 172 179 180 184 201 193 194 193 193 196 200 201 188 173 164 167 156 137 130 126 121 120 131 114 111 97 87 72 68 54 60 66 66 70 72 71 67 66 68 69 67 63 56 48 44 32 31 17 16 10 356 357 345 349 351 350 354 353 348 345 344 342 339 340 340 340 339 332 325 317 322 324 319 321
147 191 207 118 236 227 312 86 271 273 260 268 294 249 251 192 240 113 244 191 197 193 203 188 201 201 203 203 209 209 205 187 191 200 197 191 186 179 166 156 168 155 152 151 156 146 122 103 104 99 95 98 100 84 86 80 71 77 80 73 65 55 50 54 54 49 40 37 24 14 12 1 353 357 358 353 351 350 348 348 352 344 343 340 336 334 332 333 335 331 330 325 325 328 322 317 313
96 87 83 101 117 189 127 201 186 120 269 13 285 356 259 199 222 187 209 189 176 182 191 207 201 202 202 204 202 196 192 192 193 190 191 184 182 182 173 164 148 144 136 136 140 132 88 94 87 72 74 68 61 53 55 51 39 51 40 50 40 41 52 35 43 38 29 29 18 11 4 3 358 352 354 351 351 349 348 346 345 342 337 336 334 333 335 329 328 327 325 327 324 325 319 315 312
133 141 255 222 7 229 97 49 143 195 189 201 243 291 275 270 207 182 216 174 181 181 189 193 197 203 206 205 195 190 186 190 193 189 188 185 185 190 187 178 170 175 178 136 100 100 107 89 73 79 80 47 49 34 49 35 29 22 31 22 18 15 5 11 13 19 21 14 11 6 2 354 347 357 353 351 349 348 345 343 340 340 339 337 336 332 335 329 328 325 325 319 318 321 320 316 313
170 173 201 188 139 186 215 251 80 113 145 233 175 258 284 261 136 182 208 197 181 196 182 184 193 200 204 205 191 179 189 200 194 194 187 183 186 185 195 183 35 75 81 88 35 66 52 44 31 26 38 28 36 10 19 10 19 25 32 18 13 12 12 11 15 14 15 10 7 4 354 355 355 345 355 347 347 345 345 343 343 340 338 337 335 333 333 335 330 326 321 320 320 319 316 312 312